This is the latest recevied weather packets stored in our database for station/object OE6PLD-13. If no packets are shown the sender has not sent any weather packets the latest 10 day(s).
| Time | Temp. | Humidity | Pressure | Rain* | Wind** | Luminosity | Snow |
|---|---|---|---|---|---|---|---|
| 1778140281 | 17.78° C | 70% | 1016.7 hPa | 0.76 mm | - | 234 W/m² | - |
| 1778140098 | 17.22° C | 71% | 1016.7 hPa | 0.76 mm | - | 224 W/m² | - |
| 1778139915 | 17.22° C | 71% | 1016.8 hPa | 0.76 mm | - | 289 W/m² | - |
| 1778139731 | 17.22° C | 72% | 1016.7 hPa | 0.76 mm | - | 228 W/m² | - |
| 1778139548 | 17.22° C | 72% | 1016.7 hPa | 0.76 mm | - | 196 W/m² | - |
| 1778139365 | 17.22° C | 72% | 1016.5 hPa | 0.76 mm | - | 185 W/m² | - |
| 1778139181 | 16.67° C | 73% | 1016.4 hPa | 0.76 mm | - | 181 W/m² | - |
| 1778138998 | 16.67° C | 74% | 1016.4 hPa | 0.76 mm | - | 168 W/m² | - |
| 1778138814 | 16.67° C | 75% | 1016.3 hPa | 0.76 mm | - | 153 W/m² | - |
| 1778138631 | 16.67° C | 76% | 1016.4 hPa | 0.76 mm | - | 137 W/m² | - |
| 1778138448 | 16.67° C | 76% | 1016.4 hPa | 0.76 mm | - | 131 W/m² | - |
| 1778138264 | 16.11° C | 77% | 1016.5 hPa | 0.76 mm | - | 134 W/m² | - |
| 1778138081 | 16.11° C | 78% | 1016.4 hPa | 0.76 mm | - | 142 W/m² | - |
| 1778137898 | 15.56° C | 79% | 1016.4 hPa | 0.76 mm | - | 143 W/m² | - |
| 1778137714 | 15.56° C | 79% | 1016.3 hPa | 0.76 mm | - | 136 W/m² | - |
| 1778137531 | 15.56° C | 80% | 1016.3 hPa | 0.76 mm | - | 127 W/m² | - |
| 1778137348 | 15° C | 80% | 1016.3 hPa | 0.76 mm | - | 122 W/m² | - |
| 1778137164 | 15° C | 81% | 1016.1 hPa | 0.76 mm | - | 129 W/m² | - |
| 1778136981 | 15° C | 81% | 1016.2 hPa | 0.76 mm | - | 131 W/m² | - |
| 1778136798 | 15° C | 82% | 1016.3 hPa | 0.76 mm | - | 130 W/m² | - |
| 1778136614 | 14.44° C | 82% | 1016.2 hPa | 0.76 mm | - | 132 W/m² | - |
| 1778136431 | 14.44° C | 82% | 1016.2 hPa | 0.76 mm | - | 124 W/m² | - |
| 1778136248 | 15° C | 82% | 1016.1 hPa | 0.76 mm | - | 106 W/m² | - |
| 1778136064 | 15° C | 81% | 1016.2 hPa | 0.76 mm | - | 98 W/m² | - |
| 1778135881 | 15.56° C | 81% | 1016.1 hPa | 0.76 mm | - | 98 W/m² | - |
* Rain latest hour (hover to see other rain measurements)
** Current wind speed in m/s (hover to see current wind gust speed)